Regional Weather Roundup
Issued by NWS

Home | Current Version | Previous Version | Graphics & Text | Print | Product List | Glossary On
Versions: 1 2 3 4 5 6 7 8 9 10 11 12 13 14 15 16 17 18 19 20 21 22 23 24 25 26 27
000
ASUS45 KCYS 210610
RWRWY

WYOMING REGIONAL WEATHER ROUNDUP
NATIONAL WEATHER SERVICE CHEYENNE WY
1100 PM MST SAT JAN 20 2018

NOTE:  "FAIR" INDICATES FEW OR NO CLOUDS BELOW 12,000 FEET
WITH NO SIGNIFICANT WEATHER AND/OR OBSTRUCTIONS TO VISIBILITY.

WYZ001-210700-
YELLOWSTONE NATIONAL PARK

CITY           SKY/WX    TMP DP  RH WIND       PRES   REMARKS
LK YELLOWSTONE   N/A     -5  -9  83 CALM      29.93R
6HR MIN TEMP:  -5; 6HR MAX TEMP:  15;

W YELLOWSTONE  NOT AVBL

$$
WYZ002>013-054>058-071-098>099-210700-
NORTHERN WYOMING

CITY           SKY/WX    TMP DP  RH WIND       PRES   REMARKS
JACKSON        MOCLDY    17   9  70 N13       29.90R WCI   4
CODY           FAIR      24  21  88 SW3       29.96R
GREYBULL       FAIR      24  20  84 SE5       29.96R WCI  18
6HR MIN TEMP:  23; 6HR MAX TEMP:  32;

WORLAND        CLOUDY    25  22  88 S6        29.96R WCI  18
6HR MIN TEMP:  25; 6HR MAX TEMP:  28;

SHERIDAN       FAIR      25  20  81 CALM      29.97R
6HR MIN TEMP:  25; 6HR MAX TEMP:  29;

BUFFALO        CLOUDY    26  14  60 NW7       29.95R WCI  18
6HR MIN TEMP:  24; 6HR MAX TEMP:  28;

GILLETTE       CLOUDY    26  22  84 SW3       29.95R
6HR MIN TEMP:  24; 6HR MAX TEMP:  29; 6HR PCP: TRACE;

HULETT         CLOUDY    28  27  93 SW3       29.96R
NEWCASTLE      LGT SNOW  28  28 100 NW6       29.94S WCI  22

$$
WYZ014>020-022>026-101>103-210700-
CENTRAL WYOMING

CITY           SKY/WX    TMP DP  RH WIND       PRES   REMARKS
BIG PINEY      LGT SNOW  21  15  78 N8        29.83R WCI  11
6HR MIN TEMP:  21; 6HR MAX TEMP:  24; 6HR PCP: TRACE;

PINEDALE       CLOUDY    19  14  79 W12       29.82S WCI   7
DUBOIS         LGT SNOW  19  18  93 SE7       29.85R WCI  10
LANDER         LGT SNOW  23  21  92 N9        29.90S FOG     WCI  13
6HR MIN TEMP:  23; 6HR MAX TEMP:  25; 6HR PCP:  0.17;

RIVERTON       LGT SNOW  23  20  88 NE9       29.91S FOG     WCI  13
6HR MIN TEMP:  23; 6HR MAX TEMP:  25; 6HR PCP:  0.12;

CASPER         LGT SNOW  22  22 100 N13       29.91R VSB 3/4 WCI  10
6HR MIN TEMP:  22; 6HR MAX TEMP:  24; 6HR PCP:  0.30;

DOUGLAS        LGT SNOW  26  24  92 NE7       29.90S FOG     WCI  18
6HR MIN TEMP:  26; 6HR MAX TEMP:  27; 6HR PCP: TRACE;


$$
WYZ021-027>030-104>119-210700-
SOUTHERN WYOMING

CITY           SKY/WX    TMP DP  RH WIND       PRES   REMARKS
EVANSTON       CLOUDY    17  15  92 N17       29.85S FOG     WCI   1
6HR MIN TEMP:  17; 6HR MAX TEMP:  20;

FORT BRIDGER   LGT SNOW  20  20 100 W12       29.87R WCI   8
ROCK SPRINGS   CLOUDY    20  14  77 NE13      29.84R WCI   7
6HR MIN TEMP:  19; 6HR MAX TEMP:  24; 6HR PCP: TRACE;

DIXON            N/A     23  21  92 CALM      29.76S
RAWLINS        LGT SNOW  19  16  88 N18       29.79R FOG     WCI   4
6HR MIN TEMP:  19; 6HR MAX TEMP:  28; 6HR PCP:  0.11;

LARAMIE        CLOUDY    24  21  88 CALM      29.70F
6HR MIN TEMP:  23; 6HR MAX TEMP:  32; 6HR PCP:  0.08;

CHEYENNE       SNOW      25  25 100 E16       29.77F VSB 1/4 WCI  12
6HR MIN TEMP:  25; 6HR MAX TEMP:  28; 6HR PCP:  0.02;

TORRINGTON     LGT SNOW  29  28  96 NE12      29.88S FOG     WCI  19
6HR MIN TEMP:  29; 6HR MAX TEMP:  32; 6HR PCP: TRACE;


$$




USA.gov is the U.S. government's official web portal to all federal, state and local government web resources and services.